183  
ASUS44 KMAF 050901  
RWRMAF  
MIDLAND AREA WEATHER ROUNDUP  
NATIONAL WEATHER SERVICE MIDLAND TX  
300 AM CST FRI MAR 05 2021  
   
..IN SOUTHWEST TEXAS AND SOUTHEAST NEW MEXICO
 
 
 
CITY SKY/WX TMP DP RH WIND PRES REMARKS
 
ALPINE PTCLDY 52 10 18 W10 30.16F  
ANDREWS FAIR 49 23 34 NW14 30.04R  
ARTESIA CLEAR 48 21 34 W17 30.10F  
BIG SPRING CLEAR 49 22 34 W12 29.99S  
CARLSBAD CLEAR 47 23 38 W10 30.07R  
DRYDEN N/A 60 20 21 MISG 30.03R  
FORT STOCKTON PTCLDY 54 17 23 W9 30.07S  
GUAD PASS CLEAR 48 15 26 W21G32 30.12R  
HOBBS CLEAR 48 21 34 NW17 30.05S  
LAMESA NOT AVBL  
MARFA PTCLDY 51 11 20 W8 30.15R  
MIDLAND AIRPK PTCLDY 51 22 31 W12 30.02S  
MIDLAND INTL PTCLDY 50 22 33 NW13 30.02R  
ODESSA PTCLDY 49 19 30 NW10 30.04R  
PECOS PTCLDY 47 17 30 W7 30.07S  
PRESIDIO FAIR 61 15 17 W9 30.10S  
SEMINOLE CLEAR 45 24 43 W10 30.08R WCI 40  
SNYDER CLEAR 50 23 34 W10 29.95S  
WINK PTCLDY 50 23 34 NW6 30.03S  

   
..OTHER STATIONS IN TEXAS
 
 
 
CITY SKY/WX TMP DP RH WIND PRES REMARKS
 
ABILENE CLEAR 55 25 31 W7 29.90F  
AMARILLO CLEAR 42 32 67 NW16 29.94F WCI 34  
AUSTIN CLOUDY 58 52 80 S7 29.93F  
BROWNSVILLE CLOUDY 69 62 78 SE14 29.89F  
CORPUS CHRISTI CLOUDY 66 61 84 SE15 29.88F  
DALLAS FTW MOCLDY 57 45 64 S16 29.87F  
DEL RIO CLEAR 61 54 77 CALM 29.94F  
EL PASO PTCLDY 55 22 27 NW20G29 30.15R  
HOUSTON INT MOCLDY 53 50 89 CALM 29.98R  
LUBBOCK CLEAR 46 27 47 NW18 29.96S WCI 39  
SAN ANGELO CLEAR 51 41 68 W6 29.96R  
SAN ANTONIO CLOUDY 58 57 97 CALM 29.96F FOG  
WACO MOCLDY 55 47 74 S15 29.92F  
WICHITA FALLS LGT RAIN 51 46 83 N3 30.03R  

   
..OTHER LOCATIONS IN NEW MEXICO
 
 
 
CITY SKY/WX TMP DP RH WIND PRES REMARKS
 
ALAMOGORDO CLEAR 46 23 39 N9 30.18R  
ALBUQUERQUE CLEAR 38 22 52 CALM 30.25R  
CANNON AFB CLEAR 42 23 46 W16 30.05R WCI 34  
CLOVIS CLEAR 40 26 57 NW15 30.04S WCI 32  
HOLLOMAN AFB CLEAR 42 22 44 N9 30.21R WCI 36  
ROSWELL CLEAR 52 24 33 NW13G23 30.08R  
RUIDOSO CLEAR 36 19 51 NW18G31 30.18F WCI 25  
SANTA FE CLEAR 33 22 63 NW10 30.20R WCI 25  
TRUTH OR CONSE CLEAR 44 21 40 N3 30.21R  
TUCUMCARI CLEAR 46 30 53 NW17G25 30.05R WCI 39  

 
 
 
CLICK HERE TO GO TO PREVIOUS BULLETINS.

The Nexlab TX Page
The Nexlab NM Page Main Text Page